Presure
182 181 175 182 180 189 181 181 160 189 129 162 172 149 173 145 181 153 171 187 185 165 272 119 163 224 243 215 216 268 238 178 172 169 174 162 174 159 159 150 157 149 160 146 145
226 173 182 167 155 192 218 170 178 196 161 164 189 184 172 179 146 167 162 167 179 193 135 225 295 280 225 265 238 174 273 246 192 167 173 160 166 177 165 156 159 160 161 157 137
157 146 188 200 155 171 168 178 165 164 180 239 130 191 194 163 173 150 159 167 178 171 188 176 200 265 216 302 273 289 269 223 239 237 192 212 168 134 164 145 130 160 163 158 161
179 162 175 178 150 159 198 179 203 171 163 156 159 207 205 191 161 155 179 163 183 164 187 175 181 218 254 248 254 265 264 275 279 250 219 146 155 164 162 165 150 155 163 169 164
172 186 153 187 182 155 189 146 179 153 199 160 213 176 209 194 204 147 151 152 175 175 163 170 183 172 218 158 226 232 232 233 232 247 253 232 174 177 178 175 171 137 129 145 158
194 191 180 194 180 188 151 187 179 192 195 189 170 169 161 135 157 176 166 146 164 148 161 173 169 174 171 168 217 223 225 226 219 215 225 219 231 219 207 177 149 187 179 180 182
159 155 172 211 209 175 187 204 188 182 186 189 175 157 180 188 174 220 151 186 160 154 177 159 177 163 162 169 215 143 154 218 214 207 207 208 214 207 221 209 213 207 210 221 223
154 183 162 213 177 219 149 183 184 187 181 161 180 180 189 156 179 183 125 184 201 157 144 159 156 169 161 161 170 192 219 196 217 205 217 208 204 205 207 218 208 217 208 206 226
205 198 234 189 185 185 172 216 181 225 211 187 190 215 188 164 182 181 162 178 179 149 157 152 185 156 163 166 158 159 179 189 217 211 235 208 207 213 207 217 229 222 216 229 224
187 159 160 169 166 206 197 210 210 225 223 188 209 208 199 185 179 172 159 169 180 214 151 158 151 165 171 153 166 178 168 181 195 209 217 217 200 221 215 217 214 218 217 210 210
196 193 173 228 186 182 194 250 216 181 186 219 174 182 189 177 176 186 174 169 189 190 187 167 137 145 152 163 178 187 191 168 176 190 180 177 185 203 199 199 197 200 209 203 145
178 226 167 195 230 248 193 199 187 216 251 192 178 208 181 224 187 185 190 168 213 190 204 141 159 146 155 179 174 147 177 186 165 165 176 186 183 186 187 188 181 182 185 190 164
206 227 177 173 254 267 274 284 260 211 229 162 238 264 238 207 216 186 193 195 201 170 180 187 161 119 126 160 149 174 152 164 176 182 173 172 175 185 168 173 170 174 170 138 186
194 178 194 282 280 263 212 252 261 270 281 275 79 76 79 86 238 97 225 199 210 206 174 161 170 130 93 134 161 166 170 177 152 168 159 171 170 167 153 173 160 184 186 163 165
267 219 254 231 236 311 325 298 299 316 399 503 514 346 303 285 280 282 258 233 205 94 182 212 154 94 155 190 147 172 153 179 188 200 183 139 156 174 166 189 167 141 152 135 168
232 234 307 241 315 417 519 567 529 513 416 438 455 191 317 501 458 336 281 271 196 201 215 189 182 155 192 158 150 171 185 192 190 167 185 172 190 163 145 159 159 198 169 128 167
210 255 252 305 556 521 513 507 490 481 482 461 454 457 303 386 363 389 380 301 259 236 206 200 94 172 181 189 169 165 151 187 161 146 182 158 190 187 174 199 151 170 161 134 138
222 223 255 540 502 472 478 467 452 440 422 425 403 429 448 85 106 99 94 170 330 295 214 122 203 71 186 177 192 124 115 184 168 151 171 135 120 217 145 167 113 135 113 115 144
257 238 461 453 483 470 447 433 424 436 401 402 393 386 388 415 273 112 390 356 323 308 289 211 197 186 185 193 193 166 148 132 152 193 156 95 99 106 115 150 113 162 137 103 126
310 300 471 472 455 437 428 415 410 399 385 383 362 374 402 401 415 369 379 393 326 221 178 230 223 214 176 211 195 202 107 168 106 150 119 137 134 80 94 165 154 171 137 166 166
255 408 465 488 454 421 426 411 397 390 382 370 361 357 364 380 372 441 395 370 269 308 298 274 264 245 208 179 223 205 209 166 191 138 188 139 135 187 83 126 170 97 159 189 144
251 496 489 472 441 420 415 411 391 380 380 372 362 357 355 347 369 373 351 337 353 387 151 272 258 253 229 204 194 214 204 188 214 74 178 166 165 176 152 118 120 97 128 152 148
252 446 377 456 454 424 398 390 388 377 373 367 358 355 430 403 413 367 370 372 356 308 167 197 274 261 233 216 210 203 205 194 191 146 159 134 152 162 175 185 163 113 121 129 193
333 405 320 480 437 424 417 394 383 377 375 370 359 345 395 413 424 369 350 243 366 345 339 301 272 270 241 239 238 187 244 188 198 190 173 139 103 139 151 175 182 185 136 159 138
259 375 326 419 454 429 412 391 423 377 370 379 364 349 354 441 407 439 372 361 340 333 332 352 249 266 265 249 239 234 249 201 201 143 208 87 87 151 147 148 142 155 176 147 149
301 437 317 414 466 416 397 406 387 380 386 381 370 354 365 446 413 415 346 339 332 318 107 170 341 161 264 257 245 243 236 229 190 196 193 202 209 165 176 150 148 153 155 153 162
296 417 318 411 496 434 395 393 385 402 369 387 385 362 356 407 422 401 401 341 324 323 316 321 331 303 264 267 250 244 246 231 243 199 194 194 171 139 163 174 132 161 162 155 175
Wind_Speed
46 47 44 39 42 50 49 48 38 49 34 32 33 33 27 20 17 14 8 26 22 13 6 37 32 30 37 51 55 52 64 97 96 94 107 74 107 78 74 62 75 55 76 42 51
44 41 45 34 44 48 52 40 44 41 35 40 44 42 35 33 23 14 12 9 17 27 33 4 8 19 31 35 47 44 60 61 107 76 92 80 85 108 91 73 84 86 83 74 44
41 50 52 50 42 44 41 48 44 42 45 44 40 46 47 32 29 26 23 11 16 11 24 14 8 11 32 23 37 43 48 50 63 67 91 94 87 45 86 59 37 85 90 79 86
59 52 57 60 52 44 54 50 49 42 42 40 36 44 52 45 40 32 28 21 24 17 20 16 15 17 15 17 23 27 32 34 43 55 70 48 61 89 91 96 62 72 93 104 93
63 66 51 64 62 50 60 51 52 50 56 44 39 36 38 48 55 43 36 34 21 23 22 21 17 24 23 32 27 26 25 30 35 31 40 49 94 98 107 109 104 38 35 49 72
58 59 55 69 64 71 52 69 56 65 62 50 37 36 40 57 40 34 37 42 33 32 29 20 23 22 26 34 29 38 33 30 33 37 34 47 37 53 67 47 47 107 104 106 49
70 65 81 58 65 77 72 64 72 66 61 56 40 47 41 62 45 55 56 47 43 39 30 33 24 31 30 29 37 44 42 42 42 49 48 53 45 53 60 59 54 63 68 57 53
68 76 65 59 80 62 53 76 78 74 71 52 50 42 51 68 55 53 45 42 51 48 43 41 38 32 37 36 33 27 39 44 39 52 48 54 54 66 57 52 58 56 66 66 49
66 62 60 70 63 75 77 67 82 68 69 74 62 57 58 72 73 63 54 55 50 53 54 44 40 45 37 37 39 40 42 44 46 46 41 47 58 58 52 43 50 52 56 48 43
66 85 86 93 97 77 77 75 79 77 76 72 72 68 68 76 81 66 63 62 53 64 53 48 52 47 40 45 46 51 59 52 46 41 36 37 54 42 39 38 44 46 48 49 49
74 76 99 71 85 98 87 79 78 87 83 73 75 73 73 80 83 84 74 72 66 54 53 65 46 46 62 63 66 57 41 46 47 45 50 55 60 45 40 43 47 47 46 51 45
96 88 98 86 84 83 100 90 91 88 83 86 77 82 85 83 81 90 91 75 81 65 70 48 53 69 74 67 61 41 49 45 59 54 58 58 60 49 43 48 57 53 52 53 46
100 98 103 101 84 92 96 96 91 91 86 51 91 97 92 87 84 91 102 93 84 78 71 68 63 8 37 59 49 53 52 64 62 57 61 56 56 55 54 56 52 50 54 46 58
102 102 105 95 93 93 92 94 96 101 106 86 19 16 13 10 93 1 101 108 103 84 85 68 71 73 36 47 66 62 63 69 61 63 58 63 61 52 51 59 49 60 58 49 44
109 90 101 86 88 108 111 111 114 118 101 49 48 107 108 117 118 113 112 112 102 9 91 79 80 29 78 72 67 72 77 77 75 67 68 45 43 62 53 55 61 50 46 45 49
98 101 111 97 117 90 49 24 30 33 57 48 48 14 27 45 79 113 119 116 92 104 101 79 91 75 81 80 70 85 84 80 74 53 44 57 54 61 58 64 63 67 53 45 54
100 116 110 114 37 37 34 28 25 25 23 33 39 38 69 57 34 93 104 119 116 114 102 91 24 79 80 86 81 83 67 78 66 53 47 67 58 55 68 69 59 61 49 47 48
109 101 118 33 38 44 37 29 25 25 28 31 39 45 42 21 23 13 19 47 107 112 119 55 100 9 88 81 89 47 25 89 78 67 72 32 47 42 45 68 45 52 47 45 54
120 115 67 65 35 29 30 26 22 22 30 27 33 42 51 46 37 29 68 97 100 105 100 121 97 99 97 100 103 93 72 66 65 84 69 35 32 25 42 61 52 59 58 46 42
118 124 59 45 40 33 25 25 21 22 23 22 29 38 44 42 43 59 55 62 104 77 59 99 114 114 102 113 107 106 31 80 38 65 61 53 45 19 24 66 67 65 54 53 53
127 92 56 30 30 35 27 23 21 20 20 24 31 34 37 40 46 38 57 72 60 108 114 106 112 121 116 108 115 98 103 79 94 62 73 58 61 68 25 54 72 44 61 67 51
129 61 46 30 29 28 24 21 23 23 22 24 29 31 34 40 46 42 52 58 71 72 46 108 115 120 122 110 103 109 105 100 110 21 78 82 79 74 76 54 60 46 50 66 70
131 72 87 38 26 24 27 28 22 22 24 23 27 29 30 28 43 47 51 57 69 51 34 75 112 118 125 121 113 108 104 96 97 70 79 63 77 87 84 82 78 48 50 50 76
130 93 105 35 28 26 21 24 27 28 24 24 26 28 27 28 31 52 53 37 46 58 77 111 114 115 119 117 117 101 118 101 98 99 84 75 55 84 89 95 92 89 57 67 52
132 100 108 69 29 26 26 28 21 25 29 26 25 26 25 27 29 33 57 52 57 59 68 68 101 114 114 118 121 120 120 112 107 69 100 9 13 97 88 90 75 79 91 72 73
129 75 104 65 31 31 37 29 25 19 23 24 23 26 24 25 29 34 56 52 59 63 38 66 63 56 111 115 119 122 123 120 108 103 95 94 92 104 103 97 90 95 94 88 95
130 78 106 69 29 26 37 32 28 26 21 26 21 21 22 23 28 36 55 65 65 64 70 71 72 94 113 114 120 126 122 124 125 110 105 93 81 99 101 108 77 108 107 89 101
Wind_Direction
300 300 302 307 312 309 303 304 296 306 282 288 297 281 295 268 307 252 328 345 336 233 334 230 229 218 223 220 219 213 221 225 229 230 232 238 236 243 245 246 253 250 259 242 251
308 304 309 300 293 313 308 304 309 298 293 297 298 294 291 296 256 262 237 258 324 341 226 237 193 196 211 216 219 223 203 215 224 232 233 235 239 235 241 248 249 253 257 259 244
293 289 309 304 292 310 295 314 294 295 306 289 277 298 295 270 272 251 249 233 307 294 324 251 275 202 214 193 210 200 202 215 215 220 231 228 240 242 242 244 242 250 254 255 257
315 304 311 315 292 292 302 310 301 295 289 280 278 291 291 287 269 250 271 231 298 230 311 267 267 243 187 182 190 188 210 207 211 213 227 236 235 238 243 243 240 243 250 250 253
315 311 296 307 315 293 304 287 308 279 306 275 301 295 272 283 274 254 254 242 241 269 226 249 297 246 220 232 183 175 186 202 213 217 217 225 234 235 238 242 245 240 230 243 249
311 296 308 298 300 307 297 305 305 303 303 289 267 276 269 262 260 257 251 243 242 231 224 243 239 252 248 233 215 186 183 189 200 211 208 218 208 224 232 233 243 245 247 249 243
317 317 315 291 286 314 302 279 300 303 299 299 271 265 283 272 278 265 249 262 227 233 238 222 259 235 227 242 227 228 222 207 201 213 213 218 210 220 227 231 231 239 242 238 239
322 308 315 294 306 289 286 302 299 295 300 264 283 261 278 263 262 276 251 260 261 231 236 223 226 233 230 231 245 245 222 232 224 221 212 219 220 227 227 220 228 231 240 245 238
314 310 299 300 294 299 304 283 302 278 275 293 271 276 280 268 271 262 247 251 246 244 229 232 248 227 229 234 231 234 232 224 224 222 223 216 228 228 234 231 228 229 239 235 233
319 316 315 309 310 297 295 289 288 279 280 283 264 266 262 262 270 254 246 249 245 242 237 237 228 230 226 227 232 232 226 227 223 220 214 213 234 224 222 220 228 227 233 235 237
321 316 309 311 305 308 300 277 276 295 289 268 288 275 259 268 269 267 241 246 253 245 241 234 236 237 230 222 236 229 235 232 230 213 221 222 232 223 218 222 227 231 231 234 222
310 316 313 312 304 296 302 292 291 284 264 279 277 262 259 251 256 260 259 245 246 244 238 238 223 228 232 236 229 221 223 233 229 226 223 223 227 226 220 225 231 233 232 236 236
321 316 309 316 309 301 299 292 285 283 269 276 265 260 254 254 247 255 251 254 250 238 232 233 233 199 234 231 231 223 225 230 229 226 224 231 229 229 227 233 232 229 235 220 237
316 316 313 313 308 302 299 291 285 280 274 270 334 294 302 309 244 117 234 245 241 242 231 234 225 248 234 231 225 220 224 231 223 221 219 227 225 224 222 230 233 235 235 231 236
327 321 328 317 310 303 294 292 288 284 281 276 260 259 255 250 249 243 240 235 240 227 231 233 231 218 233 229 224 218 227 227 228 228 220 225 228 238 232 229 233 217 226 234 239
330 329 319 322 310 306 309 315 292 280 284 264 253 253 263 254 241 241 242 237 236 237 234 220 225 245 221 236 227 222 229 227 227 224 218 227 225 233 217 227 230 236 234 228 238
326 334 331 321 326 318 318 311 296 285 269 253 246 239 253 244 237 234 227 239 235 233 239 231 239 232 235 230 238 228 238 234 223 226 219 226 221 221 232 242 227 231 230 230 235
334 330 331 326 324 315 318 306 295 276 260 248 240 238 225 281 261 262 263 241 229 235 234 241 225 271 227 228 232 231 217 227 222 210 217 251 234 208 227 231 242 232 243 245 235
338 336 331 336 324 324 321 316 297 270 269 257 245 238 238 234 233 267 230 224 221 224 228 232 232 226 225 224 225 233 232 229 226 224 222 222 224 210 234 236 248 231 237 247 243
338 339 341 331 325 324 318 310 296 285 271 254 239 241 236 230 223 215 216 225 218 225 233 224 226 228 223 223 225 227 238 226 230 229 236 227 229 253 237 231 236 233 238 228 232
344 343 346 321 323 322 323 307 299 282 261 251 242 234 237 227 231 205 214 222 235 216 216 216 219 217 226 226 223 227 229 233 230 230 219 222 228 225 259 243 238 232 236 228 243
345 353 354 337 330 325 322 314 296 284 272 253 244 235 226 227 220 203 204 211 218 225 241 213 216 217 222 229 227 226 226 228 226 230 220 219 221 228 239 245 231 241 244 238 245
348 352 350 343 325 312 310 305 294 280 277 262 249 243 249 227 208 211 207 211 218 227 247 225 215 217 220 224 228 228 228 230 231 228 227 238 228 230 232 234 238 246 241 240 239
350 351 350 353 327 319 300 292 290 289 281 268 251 237 242 231 217 206 216 227 200 211 222 216 215 216 222 222 224 229 225 233 231 229 227 231 267 245 240 234 235 236 250 243 248
349 353 350 349 338 315 317 317 318 282 285 278 261 243 230 236 215 218 195 195 195 204 220 224 218 216 216 217 222 225 225 229 230 227 227 173 222 241 247 251 254 250 243 257 256
352 352 353 346 335 324 329 322 326 314 299 276 267 248 237 245 212 206 202 203 202 202 259 230 215 233 216 217 220 223 225 227 228 228 224 225 225 230 230 244 251 252 252 254 252
352 354 354 347 340 326 332 326 324 328 303 296 268 247 235 245 214 200 200 190 202 205 212 221 224 222 218 218 218 221 225 226 228 227 226 220 226 242 236 232 243 245 249 256 248